Regional Weather Roundup
Issued by NWS Cleveland, OH

Home | Current Version | Previous Version | Graphics & Text | Print | Product List | Glossary On
Versions: 1 2 3 4 5 6 7 8 9 10 11 12 13 14 15 16 17 18 19 20 21 22 23 24 25 26 27 28 29 30 31 32 33 34 35 36 37 38 39 40 41 42 43 44 45 46 47 48 49 50
000
ASUS41 KCLE 221510
RWRCLE
OHIO REGIONAL WEATHER ROUNDUP
NATIONAL WEATHER SERVICE WILMINGTON, OH
1000 AM EST SAT NOV 22 2014

NOTE: "FAIR" INDICATES FEW OR NO CLOUDS BELOW 12,000 FEET WITH NO
SIGNIFICANT WEATHER AND/OR OBSTRUCTIONS TO VISIBILITY.

OHZ001>008-015>018-024>027-034-035-043-044-221600-
   NORTHWEST OHIO

CITY           SKY/WX    TMP DP  RH WIND       PRES   REMARKS
DEFIANCE       CLOUDY    39  35  86 S12       30.12F
FINDLAY        CLOUDY    41  35  79 SW16      30.15F
TOLEDO EXPRESS CLOUDY    36  33  89 SW7       30.12F FOG
TOLEDO METCALF CLOUDY    37  33  85 S10       30.13F
LIMA           CLOUDY    41  35  79 S16       30.15F
$$

OHZ009>014-019>023-028>033-038-089-221600-
   NORTHEAST OHIO

CITY           SKY/WX    TMP DP  RH WIND       PRES   REMARKS
CLE-HOPKINS    LGT RAIN  35  32  88 S15G24    30.19F WCI  25
CLE-LAKEFRONT  LGT RAIN  36  32  85 S22G30    30.15F FOG
CUY CO. ARPT   SHOWER    36  32  87 S15G23    30.17F FOG
LORAIN-ELYRIA  CLOUDY    35  33  92 S13       30.17F WCI  26
ASHTABULA      FRZ RAIN  31  25  78 S15G26    30.20F WCI  20
AKRON-CANTON   FRZ RAIN  31  27  85 S12       30.24F FOG     WCI  22
WOOSTER        CLOUDY   N/A N/A N/A SW12      30.22F
MANSFIELD      LGT RAIN  38  36  92 S21G26    30.19F
YOUNGSTOWN     FRZ RAIN  28  26  92 S10       30.23F FOG     WCI  19
$$

OHZ042-051>053-060>062-070>072-077>081-221600-
  SOUTHWEST OHIO

CITY           SKY/WX    TMP DP  RH WIND       PRES   REMARKS
CINC-COVINGTON CLOUDY    43  30  60 S13       30.26F
CINC-LUNKEN    CLOUDY    38  33  82 CALM      30.30F
HAMILTON       CLOUDY    35  32  88 E6        30.27F
DAYTON         CLOUDY    39  32  76 S18       30.22F
WRIGHT-PAT AFB PTSUNNY   39  33  78 S18       30.24F
DAYTON GENERAL LGT RAIN  38  32  79 S16       30.24F
WILMINGTON     LGT RAIN  37  30  75 S9        30.27R
$$

OHZ036-037-039>041-045>050-054>059-063>069-073>076-082>088-221600-
  CENTRAL AND SOUTHEAST OHIO

CITY           SKY/WX    TMP DP  RH WIND       PRES   REMARKS
COLUMBUS       CLOUDY    33  28  81 S7        30.28S WCI  27
OSU AIRPORT    FRZ RAIN  33  29  85 S10       30.26S FOG     WCI  25
BOLTON FIELD   CLOUDY    32  28  86 S8        30.27F WCI  25
RICKENBACK AFB MIX PCPN  33  29  86 S7        30.28S WCI  26
NEWARK         CLOUDY    33  29  85 S6        30.28F WCI  28
MARION         CLOUDY    35  31  85 S15       30.20F WCI  25
LANCASTER      CLOUDY    36  31  82 S9        30.29S
ZANESVILLE     CLOUDY    30  25  81 S8        30.29F WCI  22
NEW PHILLY     FRZ RAIN  31  27  85 VRB6      30.30F FOG     WCI  25
$$



USA.gov is the U.S. government's official web portal to all federal, state and local government web resources and services.